Time,TemperatureF,DewpointF,PressureIn,WindDirection,WindDirectionDegrees,WindSpeedMPH,WindSpeedGustMPH,Humidity,HourlyPrecipIn,Conditions,Clouds,dailyrainin,SoftwareType,DateUTC
2013-12-18 00:09:00,22.6,20.0,30.01,South,176,0.0,-999.0,91,-99.99,,,0.00,weatherlink.com 1.10,2013-12-18 05:09:00,
2013-12-18 00:24:00,22.8,21.0,30.00,South,175,0.0,-999.0,91,-99.99,,,0.00,weatherlink.com 1.10,2013-12-18 05:24:00,
2013-12-18 00:39:00,22.9,21.0,30.00,South,175,1.0,-999.0,91,-99.99,,,0.00,weatherlink.com 1.10,2013-12-18 05:39:00,
2013-12-18 00:54:00,23.1,21.0,30.00,South,175,0.0,-999.0,91,-99.99,,,0.00,weatherlink.com 1.10,2013-12-18 05:54:00,
2013-12-18 01:10:00,23.4,21.0,30.00,South,176,0.0,-999.0,91,-99.99,,,0.00,weatherlink.com 1.10,2013-12-18 06:10:00,
2013-12-18 01:25:00,23.5,21.0,30.00,SSE,167,1.0,-999.0,91,-99.99,,,0.00,weatherlink.com 1.10,2013-12-18 06:25:00,
2013-12-18 01:40:00,23.7,22.0,30.00,SSW,192,3.0,-999.0,91,-99.99,,,0.00,weatherlink.com 1.10,2013-12-18 06:40:00,
2013-12-18 01:55:00,23.8,22.0,30.00,South,186,0.0,-999.0,91,-99.99,,,0.00,weatherlink.com 1.10,2013-12-18 06:55:00,
2013-12-18 02:10:00,23.6,21.0,30.00,South,173,4.0,-999.0,91,-99.99,,,0.00,weatherlink.com 1.10,2013-12-18 07:10:00,
2013-12-18 02:25:00,23.4,21.0,30.00,South,170,4.0,-999.0,91,-99.99,,,0.00,weatherlink.com 1.10,2013-12-18 07:25:00,
2013-12-18 02:40:00,23.3,21.0,30.00,South,173,0.0,-999.0,91,-99.99,,,0.00,weatherlink.com 1.10,2013-12-18 07:40:00,
2013-12-18 02:55:00,23.3,21.0,30.01,South,173,4.0,-999.0,91,-99.99,,,0.00,weatherlink.com 1.10,2013-12-18 07:55:00,
2013-12-18 03:10:00,23.3,21.0,30.02,South,172,0.0,-999.0,91,-99.99,,,0.00,weatherlink.com 1.10,2013-12-18 08:10:00,
2013-12-18 03:25:00,23.4,21.0,30.02,South,173,2.0,-999.0,91,-99.99,,,0.00,weatherlink.com 1.10,2013-12-18 08:25:00,
2013-12-18 03:40:00,23.4,21.0,30.02,South,171,2.0,-999.0,91,-99.99,,,0.00,weatherlink.com 1.10,2013-12-18 08:40:00,
2013-12-18 03:55:00,23.4,21.0,30.02,South,180,2.0,-999.0,91,-99.99,,,0.00,weatherlink.com 1.10,2013-12-18 08:55:00,
2013-12-18 04:10:00,23.2,21.0,30.02,South,181,2.0,-999.0,91,-99.99,,,0.00,weatherlink.com 1.10,2013-12-18 09:10:00,
2013-12-18 04:25:00,23.2,21.0,30.02,South,181,0.0,-999.0,91,-99.99,,,0.00,weatherlink.com 1.10,2013-12-18 09:25:00,
2013-12-18 04:40:00,23.4,22.0,30.02,South,174,3.0,-999.0,92,-99.99,,,0.00,weatherlink.com 1.10,2013-12-18 09:40:00,
2013-12-18 04:55:00,23.5,21.0,30.02,South,174,0.0,-999.0,91,-99.99,,,0.00,weatherlink.com 1.10,2013-12-18 09:55:00,
2013-12-18 05:10:00,23.7,22.0,30.03,South,174,1.0,-999.0,92,-99.99,,,0.00,weatherlink.com 1.10,2013-12-18 10:10:00,
2013-12-18 05:25:00,24.1,22.0,30.03,South,176,0.0,-999.0,92,-99.99,,,0.00,weatherlink.com 1.10,2013-12-18 10:25:00,
2013-12-18 05:40:00,24.7,23.0,30.04,South,176,0.0,-999.0,92,-99.99,,,0.00,weatherlink.com 1.10,2013-12-18 10:40:00,
2013-12-18 05:55:00,24.9,23.0,30.04,South,176,1.0,-999.0,92,-99.99,,,0.00,weatherlink.com 1.10,2013-12-18 10:55:00,
2013-12-18 06:10:00,24.8,23.0,30.04,South,176,0.0,-999.0,92,-99.99,,,0.00,weatherlink.com 1.10,2013-12-18 11:10:00,
2013-12-18 06:25:00,24.9,23.0,30.04,South,177,1.0,-999.0,92,-99.99,,,0.00,weatherlink.com 1.10,2013-12-18 11:25:00,
2013-12-18 06:40:00,25.2,23.0,30.04,South,178,0.0,-999.0,92,-99.99,,,0.00,weatherlink.com 1.10,2013-12-18 11:40:00,
2013-12-18 06:55:00,25.6,24.0,30.04,South,178,0.0,-999.0,92,-99.99,,,0.00,weatherlink.com 1.10,2013-12-18 11:55:00,
2013-12-18 07:10:00,25.9,24.0,30.05,South,178,4.0,-999.0,92,-99.99,,,0.00,weatherlink.com 1.10,2013-12-18 12:10:00,
2013-12-18 07:25:00,26.0,24.0,30.05,South,174,2.0,-999.0,91,-99.99,,,0.00,weatherlink.com 1.10,2013-12-18 12:25:00,
2013-12-18 07:40:00,26.2,24.0,30.05,South,186,0.0,-999.0,91,-99.99,,,0.00,weatherlink.com 1.10,2013-12-18 12:40:00,
2013-12-18 07:55:00,26.2,24.0,30.06,SW,229,0.0,-999.0,90,-99.99,,,0.00,weatherlink.com 1.10,2013-12-18 12:55:00,
2013-12-18 08:10:00,26.2,23.0,30.07,SW,229,4.0,-999.0,89,-99.99,,,0.00,weatherlink.com 1.10,2013-12-18 13:10:00,
2013-12-18 08:25:00,26.1,23.0,30.07,SSE,161,6.0,-999.0,89,-99.99,,,0.00,weatherlink.com 1.10,2013-12-18 13:25:00,
2013-12-18 08:40:00,26.0,23.0,30.07,SE,141,5.0,-999.0,88,-99.99,,,0.00,weatherlink.com 1.10,2013-12-18 13:40:00,
2013-12-18 08:55:00,26.1,23.0,30.08,South,170,3.0,-999.0,87,-99.99,,,0.00,weatherlink.com 1.10,2013-12-18 13:55:00,
2013-12-18 09:25:00,26.0,22.0,30.09,South,184,4.0,-999.0,85,-99.99,,,0.00,weatherlink.com 1.10,2013-12-18 14:25:00,
2013-12-18 09:40:00,25.8,22.0,30.09,SSE,163,5.0,-999.0,84,-99.99,,,0.00,weatherlink.com 1.10,2013-12-18 14:40:00,
2013-12-18 09:55:00,25.9,22.0,30.10,South,185,4.0,-999.0,84,-99.99,,,0.00,weatherlink.com 1.10,2013-12-18 14:55:00,
2013-12-18 10:10:00,26.1,22.0,30.10,South,178,4.0,-999.0,84,-99.99,,,0.00,weatherlink.com 1.10,2013-12-18 15:10:00,
2013-12-18 10:25:00,26.4,22.0,30.10,South,176,3.0,-999.0,83,-99.99,,,0.00,weatherlink.com 1.10,2013-12-18 15:25:00,
2013-12-18 10:40:00,27.0,23.0,30.10,SSW,196,6.0,-999.0,83,-99.99,,,0.00,weatherlink.com 1.10,2013-12-18 15:40:00,
2013-12-18 10:56:00,27.5,23.0,30.11,South,182,4.0,-999.0,82,-99.99,,,0.00,weatherlink.com 1.10,2013-12-18 15:56:00,
2013-12-18 11:11:00,27.8,23.0,30.11,South,182,4.0,-999.0,81,-99.99,,,0.00,weatherlink.com 1.10,2013-12-18 16:11:00,
2013-12-18 11:26:00,28.0,23.0,30.11,South,171,7.0,-999.0,80,-99.99,,,0.00,weatherlink.com 1.10,2013-12-18 16:26:00,
2013-12-18 11:41:00,28.3,23.0,30.11,South,180,5.0,-999.0,80,-99.99,,,0.00,weatherlink.com 1.10,2013-12-18 16:41:00,
2013-12-18 11:56:00,28.8,23.0,30.10,SSW,195,6.0,-999.0,80,-99.99,,,0.00,weatherlink.com 1.10,2013-12-18 16:56:00,
2013-12-18 12:11:00,30.2,24.0,30.10,SW,224,6.0,-999.0,77,-99.99,,,0.00,weatherlink.com 1.10,2013-12-18 17:11:00,
2013-12-18 12:26:00,30.1,23.0,30.10,South,187,8.0,-999.0,74,-99.99,,,0.00,weatherlink.com 1.10,2013-12-18 17:26:00,
2013-12-18 12:41:00,29.7,23.0,30.10,SSW,210,6.0,-999.0,75,-99.99,,,0.00,weatherlink.com 1.10,2013-12-18 17:41:00,
2013-12-18 12:56:00,29.7,22.0,30.09,SW,215,8.0,-999.0,74,-99.99,,,0.00,weatherlink.com 1.10,2013-12-18 17:56:00,
2013-12-18 13:11:00,30.1,23.0,30.09,SW,234,2.0,-999.0,75,-99.99,,,0.00,weatherlink.com 1.10,2013-12-18 18:11:00,
2013-12-18 13:26:00,30.1,22.0,30.09,South,189,6.0,-999.0,72,-99.99,,,0.00,weatherlink.com 1.10,2013-12-18 18:26:00,
2013-12-18 13:41:00,30.6,23.0,30.08,SSW,212,7.0,-999.0,72,-99.99,,,0.00,weatherlink.com 1.10,2013-12-18 18:41:00,
2013-12-18 13:56:00,31.3,22.0,30.08,South,189,5.0,-999.0,69,-99.99,,,0.00,weatherlink.com 1.10,2013-12-18 18:56:00,
2013-12-18 14:11:00,31.0,22.0,30.08,SSW,192,13.0,-999.0,68,-99.99,,,0.00,weatherlink.com 1.10,2013-12-18 19:11:00,
2013-12-18 14:26:00,30.3,21.0,30.07,SW,229,4.0,-999.0,69,-99.99,,,0.00,weatherlink.com 1.10,2013-12-18 19:26:00,
2013-12-18 14:41:00,30.2,22.0,30.06,South,175,11.0,-999.0,70,-99.99,,,0.00,weatherlink.com 1.10,2013-12-18 19:41:00,
2013-12-18 14:56:00,28.9,21.0,30.07,SSW,205,6.0,-999.0,72,-99.99,,,0.00,weatherlink.com 1.10,2013-12-18 19:56:00,
2013-12-18 15:11:00,28.7,21.0,30.06,SSE,161,5.0,-999.0,73,-99.99,,,0.00,weatherlink.com 1.10,2013-12-18 20:11:00,
2013-12-18 15:26:00,28.5,21.0,30.07,South,181,7.0,-999.0,72,-99.99,,,0.00,weatherlink.com 1.10,2013-12-18 20:26:00,
2013-12-18 15:41:00,28.1,20.0,30.07,SSE,167,9.0,-999.0,73,-99.99,,,0.00,weatherlink.com 1.10,2013-12-18 20:41:00,
2013-12-18 16:11:00,27.1,20.0,30.06,SSE,155,12.0,-999.0,74,-99.99,,,0.00,weatherlink.com 1.10,2013-12-18 21:11:00,
2013-12-18 16:26:00,26.6,20.0,30.06,SSE,160,4.0,-999.0,75,-99.99,,,0.00,weatherlink.com 1.10,2013-12-18 21:26:00,
2013-12-18 16:41:00,26.3,19.0,30.05,SSE,153,7.0,-999.0,75,-99.99,,,0.00,weatherlink.com 1.10,2013-12-18 21:41:00,
2013-12-18 16:56:00,26.2,20.0,30.05,South,183,6.0,-999.0,76,-99.99,,,0.00,weatherlink.com 1.10,2013-12-18 21:56:00,
2013-12-18 17:11:00,25.7,19.0,30.05,South,169,6.0,-999.0,76,-99.99,,,0.00,weatherlink.com 1.10,2013-12-18 22:11:00,
2013-12-18 17:26:00,25.2,19.0,30.05,SSE,159,8.0,-999.0,77,-99.99,,,0.00,weatherlink.com 1.10,2013-12-18 22:26:00,
2013-12-18 17:41:00,25.1,19.0,30.05,SSE,150,5.0,-999.0,77,-99.99,,,0.00,weatherlink.com 1.10,2013-12-18 22:41:00,
2013-12-18 17:56:00,24.7,18.0,30.04,SE,144,4.0,-999.0,77,-99.99,,,0.00,weatherlink.com 1.10,2013-12-18 22:56:00,
2013-12-18 18:11:00,24.5,18.0,30.03,SE,146,4.0,-999.0,77,-99.99,,,0.00,weatherlink.com 1.10,2013-12-18 23:11:00,
2013-12-18 18:26:00,24.2,18.0,30.02,SE,145,7.0,-999.0,76,-99.99,,,0.00,weatherlink.com 1.10,2013-12-18 23:26:00,
2013-12-18 18:41:00,24.0,17.0,30.01,SE,134,5.0,-999.0,75,-99.99,,,0.00,weatherlink.com 1.10,2013-12-18 23:41:00,
2013-12-18 18:56:00,23.8,17.0,30.02,SSE,163,4.0,-999.0,74,-99.99,,,0.00,weatherlink.com 1.10,2013-12-18 23:56:00,
2013-12-18 19:11:00,23.6,16.0,30.01,SE,138,6.0,-999.0,73,-99.99,,,0.00,weatherlink.com 1.10,2013-12-19 00:11:00,
2013-12-18 19:26:00,23.5,16.0,30.01,SE,128,6.0,-999.0,73,-99.99,,,0.00,weatherlink.com 1.10,2013-12-19 00:26:00,
2013-12-18 19:41:00,22.9,16.0,29.99,SSE,168,3.0,-999.0,76,-99.99,,,0.00,weatherlink.com 1.10,2013-12-19 00:41:00,
2013-12-18 19:56:00,22.7,16.0,29.99,SSE,153,6.0,-999.0,76,-99.99,,,0.00,weatherlink.com 1.10,2013-12-19 00:56:00,
2013-12-18 20:11:00,22.6,16.0,29.98,SE,136,7.0,-999.0,76,-99.99,,,0.00,weatherlink.com 1.10,2013-12-19 01:11:00,
2013-12-18 20:26:00,22.3,16.0,29.97,SE,137,3.0,-999.0,76,-99.99,,,0.00,weatherlink.com 1.10,2013-12-19 01:26:00,
2013-12-18 20:42:00,22.4,16.0,29.96,SE,144,6.0,-999.0,77,-99.99,,,0.00,weatherlink.com 1.10,2013-12-19 01:42:00,
2013-12-18 20:57:00,22.6,16.0,29.95,SE,131,4.0,-999.0,77,-99.99,,,0.00,weatherlink.com 1.10,2013-12-19 01:57:00,
2013-12-18 21:12:00,23.4,17.0,29.95,SE,131,5.0,-999.0,75,-99.99,,,0.00,weatherlink.com 1.10,2013-12-19 02:12:00,
2013-12-18 21:27:00,24.0,17.0,29.93,SSE,149,5.0,-999.0,74,-99.99,,,0.00,weatherlink.com 1.10,2013-12-19 02:27:00,
2013-12-18 21:42:00,24.8,17.0,29.94,SE,132,0.0,-999.0,71,-99.99,,,0.00,weatherlink.com 1.10,2013-12-19 02:42:00,
2013-12-18 21:57:00,25.0,17.0,29.94,SE,145,6.0,-999.0,71,-99.99,,,0.00,weatherlink.com 1.10,2013-12-19 02:57:00,
2013-12-18 22:12:00,25.0,17.0,29.94,SSE,152,3.0,-999.0,71,-99.99,,,0.00,weatherlink.com 1.10,2013-12-19 03:12:00,
2013-12-18 22:27:00,25.1,17.0,29.93,SSE,151,0.0,-999.0,71,-99.99,,,0.00,weatherlink.com 1.10,2013-12-19 03:27:00,
2013-12-18 22:42:00,25.5,17.0,29.93,SSE,155,0.0,-999.0,70,-99.99,,,0.00,weatherlink.com 1.10,2013-12-19 03:42:00,
2013-12-18 22:57:00,26.9,18.0,29.93,SSE,162,7.0,-999.0,68,-99.99,,,0.00,weatherlink.com 1.10,2013-12-19 03:57:00,
2013-12-18 23:12:00,28.2,18.0,29.92,SSE,165,7.0,-999.0,66,-99.99,,,0.00,weatherlink.com 1.10,2013-12-19 04:12:00,
2013-12-18 23:27:00,28.4,18.0,29.91,South,174,5.0,-999.0,65,-99.99,,,0.00,weatherlink.com 1.10,2013-12-19 04:27:00,
2013-12-18 23:42:00,28.2,18.0,29.91,SSE,154,6.0,-999.0,66,-99.99,,,0.00,weatherlink.com 1.10,2013-12-19 04:42:00,
2013-12-18 23:57:00,28.1,18.0,29.90,South,173,6.0,-999.0,67,-99.99,,,0.00,weatherlink.com 1.10,2013-12-19 04:57:00,